When you browse on this site, cookies collect data to enhance your experience and personalize the content and advertising you see.
Visit our Privacy Policy to learn more. By continuing to use the site, you agree to this use of cookies and data.
  • In Österreich
  • Länderverzeichnis
  • Für 7 Tage
  • Wassertemperatur
  • Satellitenkarten
  • Wetterkarte
  • News
  • Widgets
  • user-avatar
    Anmelden

    Stündliche Wetter Bershad

    Heute, 21 Juli, Sonntag

    Zeit Temperatur Niederschläge Wind Luftdruck Luftfeuchtigkeit
    00:00 +20°C° 0.1 mm 1 m/S 745 mmHg 70%
    01:00 +20°C° 0.1 mm 1 m/S 745 mmHg 74%
    02:00 +17°C° 0 mm 0 m/S 745 mmHg 75%
    03:00 +17°C° 0.2 mm 0 m/S 745 mmHg 77%
    04:00 +17°C° 0.2 mm 0 m/S 745 mmHg 78%
    05:00 +17°C° 0.2 mm 0 m/S 745 mmHg 80%
    06:00 +19°C° 0 mm 0 m/S 745 mmHg 75%
    07:00 +20°C° 0 mm 0 m/S 745 mmHg 69%
    08:00 +25°C° 0 mm 1 m/S 746 mmHg 62%
    09:00 +26°C° 0 mm 1 m/S 746 mmHg 56%
    10:00 +27°C° 0 mm 1 m/S 746 mmHg 51%
    11:00 +29°C° 0 mm 2 m/S 746 mmHg 45%
    12:00 +29°C° 0 mm 2 m/S 746 mmHg 44%
    13:00 +29°C° 0 mm 2 m/S 745 mmHg 43%
    14:00 +30°C° 0 mm 2 m/S 745 mmHg 41%
    15:00 +30°C° 0 mm 2 m/S 745 mmHg 44%
    16:00 +29°C° 0 mm 2 m/S 745 mmHg 46%
    17:00 +29°C° 0 mm 2 m/S 745 mmHg 48%
    18:00 +28°C° 0 mm 1 m/S 745 mmHg 52%
    19:00 +26°C° 0 mm 1 m/S 745 mmHg 56%
    20:00 +24°C° 0 mm 1 m/S 744 mmHg 59%
    21:00 +24°C° 0 mm 1 m/S 745 mmHg 61%
    22:00 +23°C° 0 mm 1 m/S 745 mmHg 63%
    23:00 +22°C° 0 mm 1 m/S 745 mmHg 65%

    Morgen, 22 Juli, Montag

    Zeit Temperatur Niederschläge Wind Luftdruck Luftfeuchtigkeit
    00:00 +22°C° 0 mm 1 m/S 745 mmHg 67%
    01:00 +22°C° 0 mm 1 m/S 745 mmHg 68%
    02:00 +21°C° 0 mm 1 m/S 745 mmHg 70%
    03:00 +21°C° 0 mm 1 m/S 745 mmHg 70%
    04:00 +21°C° 0 mm 1 m/S 744 mmHg 71%
    05:00 +21°C° 0 mm 1 m/S 744 mmHg 72%
    06:00 +23°C° 0 mm 2 m/S 744 mmHg 69%
    07:00 +24°C° 0 mm 2 m/S 744 mmHg 66%
    08:00 +26°C° 0 mm 3 m/S 745 mmHg 62%
    09:00 +27°C° 0 mm 3 m/S 745 mmHg 60%
    10:00 +28°C° 0 mm 4 m/S 745 mmHg 57%
    11:00 +28°C° 0 mm 4 m/S 745 mmHg 54%
    12:00 +28°C° 0 mm 5 m/S 745 mmHg 55%
    13:00 +28°C° 0 mm 5 m/S 744 mmHg 55%
    14:00 +28°C° 0 mm 5 m/S 744 mmHg 56%
    15:00 +28°C° 0 mm 5 m/S 744 mmHg 57%
    16:00 +28°C° 0 mm 5 m/S 744 mmHg 58%
    17:00 +28°C° 0 mm 5 m/S 744 mmHg 60%
    18:00 +26°C° 0 mm 4 m/S 744 mmHg 66%
    19:00 +24°C° 0 mm 3 m/S 744 mmHg 73%
    20:00 +22°C° 0 mm 3 m/S 744 mmHg 80%
    21:00 +21°C° 0 mm 3 m/S 744 mmHg 83%
    22:00 +20°C° 0 mm 3 m/S 744 mmHg 85%
    23:00 +20°C° 0 mm 3 m/S 744 mmHg 88%

    übermorgen, 23 Juli, Dienstag

    Zeit Temperatur Niederschläge Wind Luftdruck Luftfeuchtigkeit
    00:00 +19°C° 0 mm 3 m/S 744 mmHg 87%
    01:00 +19°C° 0 mm 3 m/S 744 mmHg 86%
    02:00 +19°C° 0 mm 3 m/S 744 mmHg 85%
    03:00 +19°C° 0 mm 3 m/S 743 mmHg 87%
    04:00 +18°C° 0 mm 3 m/S 743 mmHg 88%
    05:00 +18°C° 0 mm 3 m/S 743 mmHg 90%
    06:00 +19°C° 0 mm 4 m/S 743 mmHg 85%
    07:00 +20°C° 0 mm 4 m/S 743 mmHg 79%
    08:00 +21°C° 0 mm 5 m/S 743 mmHg 74%
    09:00 +22°C° 0 mm 5 m/S 743 mmHg 68%
    10:00 +23°C° 0 mm 5 m/S 743 mmHg 63%
    11:00 +25°C° 0 mm 5 m/S 743 mmHg 57%
    12:00 +25°C° 0 mm 5 m/S 743 mmHg 53%
    13:00 +26°C° 0 mm 5 m/S 743 mmHg 50%
    14:00 +26°C° 0 mm 5 m/S 742 mmHg 46%
    15:00 +26°C° 0 mm 5 m/S 742 mmHg 48%
    16:00 +25°C° 0 mm 5 m/S 742 mmHg 49%
    17:00 +24°C° 0 mm 6 m/S 742 mmHg 51%
    18:00 +22°C° 0 mm 5 m/S 742 mmHg 58%
    19:00 +21°C° 0 mm 4 m/S 742 mmHg 66%
    20:00 +19°C° 0 mm 3 m/S 742 mmHg 73%
    21:00 +18°C° 0 mm 3 m/S 742 mmHg 75%
    22:00 +18°C° 0 mm 3 m/S 742 mmHg 78%
    23:00 +17°C° 0 mm 3 m/S 743 mmHg 80%

    24 Juli, Mittwoch

    Zeit Temperatur Niederschläge Wind Luftdruck Luftfeuchtigkeit
    00:00 +17°C° 0 mm 3 m/S 742 mmHg 81%
    01:00 +16°C° 0 mm 3 m/S 742 mmHg 82%
    02:00 +16°C° 0 mm 3 m/S 742 mmHg 83%
    03:00 +16°C° 0.2 mm 3 m/S 742 mmHg 88%
    04:00 +14°C° 0.2 mm 3 m/S 742 mmHg 92%
    05:00 +13°C° 0.2 mm 3 m/S 742 mmHg 96%
    06:00 +16°C° 0 mm 3 m/S 742 mmHg 89%
    07:00 +18°C° 0 mm 3 m/S 742 mmHg 82%
    08:00 +19°C° 0 mm 3 m/S 742 mmHg 75%
    09:00 +20°C° 0 mm 3 m/S 742 mmHg 69%
    10:00 +21°C° 0 mm 4 m/S 742 mmHg 64%
    11:00 +23°C° 0 mm 4 m/S 742 mmHg 58%
    12:00 +23°C° 0.1 mm 4 m/S 742 mmHg 58%
    13:00 +23°C° 0.1 mm 4 m/S 742 mmHg 58%
    14:00 +23°C° 0.1 mm 4 m/S 741 mmHg 58%
    15:00 +22°C° 0.9 mm 4 m/S 741 mmHg 66%
    16:00 +21°C° 0.9 mm 3 m/S 741 mmHg 74%
    17:00 +20°C° 0.9 mm 2 m/S 741 mmHg 82%
    18:00 +20°C° 0.1 mm 2 m/S 741 mmHg 83%
    19:00 +19°C° 0.1 mm 2 m/S 741 mmHg 85%
    20:00 +19°C° 0.1 mm 3 m/S 741 mmHg 87%
    21:00 +19°C° 0.3 mm 3 m/S 741 mmHg 89%
    22:00 +18°C° 0.3 mm 4 m/S 741 mmHg 91%
    23:00 +18°C° 0.3 mm 4 m/S 741 mmHg 93%

    25 Juli, Donnerstag

    Zeit Temperatur Niederschläge Wind Luftdruck Luftfeuchtigkeit
    00:00 +18°C° 0.2 mm 4 m/S 741 mmHg 94%
    01:00 +17°C° 0.2 mm 4 m/S 741 mmHg 95%
    02:00 +17°C° 0.2 mm 4 m/S 741 mmHg 96%
    03:00 +16°C° 0 mm 5 m/S 741 mmHg 96%
    04:00 +16°C° 0 mm 5 m/S 742 mmHg 96%
    05:00 +16°C° 0 mm 5 m/S 742 mmHg 96%
    06:00 +17°C° 0 mm 5 m/S 742 mmHg 94%
    07:00 +17°C° 0 mm 6 m/S 742 mmHg 91%
    08:00 +19°C° 0 mm 6 m/S 742 mmHg 88%
    09:00 +20°C° 0 mm 6 m/S 743 mmHg 84%
    10:00 +21°C° 0 mm 6 m/S 743 mmHg 80%
    11:00 +22°C° 0 mm 6 m/S 743 mmHg 76%
    12:00 +22°C° 0.5 mm 7 m/S 743 mmHg 73%
    13:00 +23°C° 0.5 mm 7 m/S 743 mmHg 70%
    14:00 +24°C° 0.5 mm 7 m/S 743 mmHg 67%
    15:00 +24°C° 0.6 mm 7 m/S 742 mmHg 68%
    16:00 +24°C° 0.6 mm 7 m/S 742 mmHg 68%
    17:00 +24°C° 0.6 mm 7 m/S 742 mmHg 69%
    18:00 +22°C° 0.1 mm 6 m/S 743 mmHg 74%
    19:00 +21°C° 0.1 mm 5 m/S 743 mmHg 79%
    20:00 +20°C° 0.1 mm 4 m/S 743 mmHg 84%
    21:00 +19°C° 0 mm 4 m/S 743 mmHg 86%
    22:00 +18°C° 0 mm 4 m/S 743 mmHg 88%
    23:00 +18°C° 0 mm 4 m/S 743 mmHg 91%

    26 Juli, Freitag

    Zeit Temperatur Niederschläge Wind Luftdruck Luftfeuchtigkeit
    00:00 +17°C° 0 mm 4 m/S 743 mmHg 90%
    01:00 +17°C° 0 mm 4 m/S 743 mmHg 90%
    02:00 +17°C° 0 mm 4 m/S 743 mmHg 89%
    03:00 +15°C° 0 mm 4 m/S 743 mmHg 89%
    04:00 +15°C° 0 mm 4 m/S 743 mmHg 89%
    05:00 +15°C° 0 mm 5 m/S 743 mmHg 89%
    06:00 +17°C° 0 mm 5 m/S 743 mmHg 84%
    07:00 +19°C° 0 mm 5 m/S 743 mmHg 79%
    08:00 +21°C° 0 mm 6 m/S 743 mmHg 74%
    09:00 +22°C° 0.1 mm 6 m/S 743 mmHg 71%
    10:00 +23°C° 0.1 mm 6 m/S 743 mmHg 67%
    11:00 +24°C° 0.1 mm 6 m/S 743 mmHg 64%
    12:00 +24°C° 0.6 mm 6 m/S 743 mmHg 66%
    13:00 +24°C° 0.6 mm 6 m/S 742 mmHg 67%
    14:00 +25°C° 0.6 mm 5 m/S 742 mmHg 68%
    15:00 +25°C° 0.5 mm 5 m/S 742 mmHg 69%
    16:00 +25°C° 0.5 mm 5 m/S 742 mmHg 71%
    17:00 +25°C° 0.5 mm 5 m/S 742 mmHg 72%
    18:00 +23°C° 0.1 mm 5 m/S 742 mmHg 77%
    19:00 +21°C° 0.1 mm 4 m/S 742 mmHg 83%
    20:00 +20°C° 0.1 mm 3 m/S 742 mmHg 89%
    21:00 +19°C° 0 mm 3 m/S 743 mmHg 91%
    22:00 +18°C° 0 mm 3 m/S 743 mmHg 93%
    23:00 +18°C° 0 mm 3 m/S 743 mmHg 95%
    Mehr zeigen